Location: Colonia Mina de C?rbuni
(46.1667°N, 22.7167°E)
Time: 06:41:57
(UTC+00:00)

Courier 1B - Pass Details

Date: 23 April 2024
Orbit: 962 x 1208 km, 28.3° (Epoch: 26 May)

Event Time Altitude Azimuth Distance (km) Brightness Sun altitude
Rises 00:00:48 0° 228° (SW) 4,040 - -27.6°
Reaches altitude 10° 00:04:47 10° 210° (SSW) 3,039 - -27.3°
Maximum altitude 00:09:17 17° 172° (S) 2,496 - -26.9°
Exits shadow 00:13:19 11° 137° (SE) 2,869 9.8 -26.6°
Drops below altitude 10° 00:13:38 10° 135° (SE) 2,931 9.8 -26.5°
Sets 00:17:23 0° 116° (ESE) 3,837 10.7 -26.2°
